Regional Weather Roundup
Issued by NWS Green Bay, WI

Home | Current Version | Previous Version | Text Only | Print | Product List | Glossary On
Versions: 1 2 3 4 5 6 7 8 9 10 11 12 13 14 15 16 17 18 19 20 21 22 23 24 25 26 27 28 29 30 31 32 33 34 35 36 37 38 39 40 41 42 43 44 45 46 47 48 49 50
000
ASUS43 KGRB 241411
RWRGRB

NORTH-CENTRAL AND NORTHEAST WISCONSIN REGIONAL WEATHER ROUNDUP
NATIONAL WEATHER SERVICE GREEN BAY WI
900 AM CDT SAT JUN 24 2017

WIZ005-009-010>012-018-019-241500-
NORTH CENTRAL WISCONSIN

CITY           SKY/WX    TMP DP  RH WIND       PRES   REMARKS
IRONWOOD       CLOUDY    54  50  86 W14       29.88R
MANITOWISH WTR CLOUDY    52  52 100 W7        29.89R FOG
ARBOR VITAE    CLOUDY    57  52  84 NW9G16    29.88S
EAGLE RIVER    CLOUDY    55  49  80 W8        29.88R
LAND O LAKES   CLOUDY    55  51  89 W6        29.89R
RHINELANDER    CLOUDY    56  51  84 NW7       29.89R
PHILLIPS       CLOUDY    53  50  89 W3        29.91R
ANTIGO         CLOUDY    56  51  85 W15       29.90R
TOMAHAWK       NOT AVBL
MERRILL        CLOUDY    56  51  82 NW9       29.91R
$$

WIZ013-073-241500-
NORTHEAST WISCONSIN

CITY           SKY/WX    TMP DP  RH WIND       PRES   REMARKS
IRON MOUNTAIN  CLOUDY    60  51  72 NW10      29.83S
MARINETTE      RAIN      59  55  87 W3        29.85R
OCONTO         PTSUNNY   60  56  84 W8        29.85S
$$

WIZ017-030-035>037-045-241500-
CENTRAL WISCONSIN

CITY           SKY/WX    TMP DP  RH WIND       PRES   REMARKS
MEDFORD        CLOUDY    55  47  76 NW12G18   29.93R
WAUSAU         CLOUDY    58  51  78 NW13      29.90R
MOSINEE        CLOUDY    57  52  82 NW10      29.93R
MARSHFIELD     SUNNY     59  48  67 NW18      29.93R
WISC RAPIDS    SUNNY     62  49  62 NW14      29.95R
STEVENS POINT  PTSUNNY   58  49  71 NW10G17   29.93R
WAUPACA        SUNNY     64  51  61 W14G20    29.91R
SHAWANO        CLOUDY    63  54  73 W9        29.88R
CLINTONVILLE   CLOUDY    61  52  72 W12G17    29.89R
WAUTOMA        PTSUNNY   63  51  65 W18       29.93R
$$

WIZ038-039-048-051-241500-
FOX VALLEY

CITY           SKY/WX    TMP DP  RH WIND       PRES   REMARKS
NWS GREEN BAY  CLOUDY    62  57  83 W13       29.88R
APPLETON       PTSUNNY   61  48  63 W15       29.88R
OSHKOSH        MOSUNNY   62  51  67 W15G22    29.90R
FOND DU LAC    PTSUNNY   63  50  62 NW14G21   29.92R
$$

WIZ022-050-052-241500-
EAST CENTRAL WISCONSIN

CITY           SKY/WX    TMP DP  RH WIND       PRES   REMARKS
EPHRAIM        CLOUDY    59  53  80 NW8       29.83S
WASHINGTON ISL CLOUDY    59  53  80 NW8       29.83R
STURGEON BAY     N/A     61  55  81 NW9         N/A
MANITOWOC      CLOUDY    63  54  72 NW14      29.88R
SHEBOYGAN      CLOUDY    64  56  75 NW13G21   29.88R
$$

LMZ563-521-522-541>543-241500-
LAKESHORE

STATION/POSITION TIME  TEMP    WIND        PRES    VSBY  WAVE
                       AIR SEA DIR/SP/G                  HT/PER
                 (UTC) (F)     (DEG/KT/KT) (MB)    (MI)  (FT/S)
SHEBOYGAN LKSHOR 1400   63     310/ 14/ 17 1011.4R
KEWAUNEE LKSHORE 1348   62     320/  8/ 11 1010.6R
NORTHPORT PIER   1340   60     310/  8/ 12 1010.2R
N MID LAKE BUOY  1350   58 56  310/  8/ 10 1010.4R         1/ 4
S GREEN BAY BUOY 1400   60     280/ 12/ 14 1010.8
CHAMBERS ISLAND  1340   61     280/  2/  6 1010.2R
MENOMINEE LKSHOR 1348          290/  4/  8 1009.8R
$$




USA.gov is the U.S. government's official web portal to all federal, state and local government web resources and services.